Weather History for Mount Ida, AR

Change the Weather History Date:

Wednesday, December 25, 2013

  Actual Average (KHOT) Record (KHOT)
Temperature  
Mean Temperature 38 °F -  
Max Temperature 53 °F 48 °F 76 °F (1955)
Min Temperature 24 °F 28 °F 0 °F (1983)
Degree Days  
Heating Degree Days 26    
Moisture  
Dew Point 29 °F    
Average Humidity 78    
Maximum Humidity 96    
Minimum Humidity 47    
Precipitation  
Precipitation 0.00 in - - ()
Sea Level Pressure  
Sea Level Pressure 30.36 in    
Wind  
Wind Speed 1 mph (WNW)    
Max Wind Speed 8 mph    
Max Gust Speed -    
Visibility 10 miles    
Events      
Averages and records for this station are not official NWS values.
T = Trace of Precipitation, MM = Missing Value Source: NWS Daily Summary

Daily Weather History Graph

Daily Weather History Graph

Search for Another Location

Airport:

Trip Planner

Search our weather history database for the weather conditions in past years. The results will help you decide how hot, cold, wet, or windy it might be!

Date:

Astronomy

Dec. 25, 2013 Rise Set
Actual Time 7:19 AM CST 5:10 PM CST
Civil Twilight 6:51 AM CST 5:38 PM CST
Nautical Twilight 6:19 AM CST 6:09 PM CST
Astronomical Twilight 5:48 AM CST 6:40 PM CST
Moon 12:01 AM CST (12/25) 12:01 PM CST (12/25)
Length of Visible Light 10h 46m
Length of Day
9h 50m
Waning Gibbous, 48% of the Moon is Illuminated
Dec 25
Waning Gibbous
Jan 1
New
Jan 7
First Quarter
Jan 15
Full
Jan 23
Last Quarter

Hourly Weather History & Observations

Time (CST) Temp. Windchill Dew Point Humidity Pressure Visibility Wind Dir Wind Speed Gust Speed Precip Events Conditions
12:53 AM 28.0 °F - 25.0 °F 88% 30.38 in 10.0 mi Calm Calm - N/A   Clear
1:53 AM 26.1 °F - 25.0 °F 96% 30.37 in 10.0 mi Calm Calm - N/A   Clear
2:53 AM 26.1 °F - 24.1 °F 92% 30.36 in 10.0 mi Calm Calm - N/A   Clear
3:53 AM 26.1 °F - 24.1 °F 92% 30.37 in 10.0 mi Calm Calm - N/A   Clear
4:53 AM 25.0 °F - 24.1 °F 96% 30.35 in 10.0 mi Calm Calm - N/A   Clear
5:53 AM 25.0 °F - 24.1 °F 96% 30.35 in 10.0 mi Calm Calm - N/A   Clear
6:53 AM 24.1 °F - 21.9 °F 91% 30.36 in 10.0 mi Calm Calm - N/A   Clear
7:53 AM 25.0 °F - 24.1 °F 96% 30.38 in 10.0 mi Calm Calm - N/A   Clear
8:53 AM 33.1 °F - 30.0 °F 89% 30.38 in 10.0 mi Calm Calm - N/A   Clear
9:53 AM 37.9 °F - 30.0 °F 73% 30.39 in 10.0 mi Calm Calm - N/A   Clear
10:53 AM 44.1 °F 41.5 °F 30.0 °F 58% 30.37 in 10.0 mi Variable 4.6 mph - N/A   Clear
11:53 AM 46.9 °F - 32.0 °F 56% 30.35 in 10.0 mi Calm Calm - N/A   Clear
12:53 PM 48.9 °F - 32.0 °F 52% 30.32 in 10.0 mi NNW 4.6 mph - N/A   Mostly Cloudy
1:53 PM 52.0 °F - 34.0 °F 50% 30.30 in 10.0 mi West 8.1 mph - N/A   Clear
2:53 PM 53.1 °F - 33.1 °F 47% 30.30 in 10.0 mi Variable 6.9 mph - N/A   Clear
3:53 PM 52.0 °F - 33.1 °F 49% 30.31 in 10.0 mi Variable 3.5 mph - N/A   Clear
4:53 PM 50.0 °F - 34.0 °F 54% 30.32 in 10.0 mi Calm Calm - N/A   Overcast
5:53 PM 46.0 °F 43.9 °F 34.0 °F 63% 30.35 in 10.0 mi NW 4.6 mph - N/A   Scattered Clouds
6:53 PM 42.1 °F - 33.1 °F 70% 30.36 in 10.0 mi Calm Calm - N/A   Clear
7:53 PM 37.9 °F - 33.1 °F 83% 30.37 in 10.0 mi Calm Calm - N/A   Clear
8:53 PM 35.1 °F - 32.0 °F 89% 30.38 in 10.0 mi Calm Calm - N/A   Clear
9:53 PM 33.1 °F - 30.0 °F 89% 30.38 in 10.0 mi Calm Calm - N/A   Clear
10:53 PM 30.0 °F - 28.9 °F 96% 30.39 in 8.0 mi Calm Calm - N/A   Clear
11:53 PM 30.0 °F 26.5 °F 28.9 °F 96% 30.39 in 8.0 mi West 3.5 mph - N/A   Clear